Weather reports worldwide

Advertisment
Bonn-Roleber, Germany (10519): temperature & dewpoint: 10.01.2018 08:00:00 - 16.01.2018 08:00:00 (CET)Bonn-Roleber, Germany (10519): temperature 5cm & temperature -5cm: 10.01.2018 08:00:00 - 16.01.2018 08:00:00 (CET)Bonn-Roleber, Germany (10519): temperature -20cm & temperature -100cm: 10.01.2018 08:00:00 - 16.01.2018 08:00:00 (CET)Bonn-Roleber, Germany (10519): wind speed & gusts: 10.01.2018 08:00:00 - 16.01.2018 08:00:00 (CET)Bonn-Roleber, Germany (10519): wind direction: 10.01.2018 08:00:00 - 16.01.2018 08:00:00 (CET)Bonn-Roleber, Germany (10519): reduced air pressure: 10.01.2018 08:00:00 - 16.01.2018 08:00:00 (CET)Bonn-Roleber, Germany (10519): visibility: 10.01.2018 08:00:00 - 16.01.2018 08:00:00 (CET)Bonn-Roleber, Germany (10519): sunshine duration: 10.01.2018 08:00:00 - 16.01.2018 08:00:00 (CET)Bonn-Roleber, Germany (10519): precipitation: 10.01.2018 08:00:00 - 16.01.2018 08:00:00 (CET)
Date & Time tt [°C] td [°C] tt 5cm [°C] tt -5cm [°C] tt -20cm [°C] tt -100cm [°C] ff [km/h] ff [kn] fx [km/h] fx [kn] dd ppp [hPa] vv [km] sd [min] rr [mm]
16.01.2018 08:00:00 5,1 3,7 3,8 3,3 4,1 7,1 9 5 22 12 SW 993,5 69 0 0,0
16.01.2018 07:00:00 4,4 3,8 3,4 3,6 4,1 7,1 9 5 22 12 SW 993,6 49 0 0,6
16.01.2018 06:00:00 4,0 3,4 3,5 3,8 4,1 7,2 14 7 29 16 W 994,4 3,9 0 1,2
16.01.2018 05:00:00 5,4 3,1 4,3 3,6 4,2 7,2 13 7 23 12 SW 994,7 31 0 0,0
16.01.2018 04:00:00 4,9 3,4 3,6 3,9 4,1 7,2 11 6 30 16 SW 995,3 70 0 0,0
16.01.2018 03:00:00 5,3 3,4 4,5 4,2 4,1 7,2 11 6 47 25 W 995,9 70 0 0,3
16.01.2018 02:00:00 5,7 5,1 5,2 4,4 4,0 7,2 15 8 43 23 W 995,9 9 0 1,6
16.01.2018 01:00:00 6,4 5,1 5,5 4,2 3,9 7,2 13 7 29 16 W 995,4 1,1 0 0,0
16.01.2018 00:00:00 6,2 4,3 5,0 4,0 3,9 7,2 15 8 41 22 SSW 995,0 25 0 0,0
15.01.2018 23:00:00 5,9 3,4 4,5 3,9 3,8 7,2 27 15 48 26 SSW 995,1 16 0 0,3
15.01.2018 22:00:00 6,1 2,3 5,5 3,7 3,7 7,2 31 17 56 31 SSW 995,0 70 0 0,0
15.01.2018 21:00:00 6,0 2,0 5,4 3,8 3,7 7,2 32 17 55 30 S 996,0 70 0 0,0
15.01.2018 20:00:00 5,8 2,7 5,2 3,8 3,6 7,2 26 14 53 29 S 996,9 70 0 0,0
15.01.2018 19:00:00 6,0 2,8 5,3 3,7 3,5 7,3 32 17 60 33 S 997,9 50 0 0,0
15.01.2018 18:00:00 6,3 2,4 5,5 3,7 3,4 7,3 26 14 48 26 S 999,9 51 0 0,0
15.01.2018 17:00:00 5,9 2,6 5,1 3,7 3,3 7,3 24 13 48 26 SSE 1002,0 50 0 0,1
15.01.2018 16:00:00 6,0 2,7 4,6 3,7 3,1 7,3 22 12 36 20 S 1003,9 25 0 0,2
15.01.2018 15:00:00 6,0 2,3 5,5 3,6 2,9 7,3 19 10 41 22 S 1005,2 29 0 0,0
15.01.2018 14:00:00 6,1 2,2 5,7 3,5 2,6 7,3 22 12 37 20 S 1007,3 22 0 0,0
15.01.2018 13:00:00 5,2 2,1 5,1 3,0 2,4 7,3 17 9 29 15 SSE 1009,8 15 0 0,0
15.01.2018 12:00:00 5,2 2,3 5,4 2,1 2,3 7,3 18 10 31 17 SSE 1011,3 13 0 0,0
15.01.2018 11:00:00 4,9 1,5 4,5 0,6 2,3 7,3 13 7 27 15 SSE 1012,7 15 0 0,0
15.01.2018 10:00:00 4,2 0,9 3,4 0,4 2,3 7,3 11 6 29 16 S 1013,5 14 16 0,0
15.01.2018 09:00:00 3,3 0,4 1,8 0,4 2,4 7,3 15 8 26 14 SSE 1014,2 12 0 0,0
15.01.2018 08:00:00 2,3 -0,3 0,6 0,4 2,4 7,3 16 9 27 15 SSE 1015,0 12 0 0,0
15.01.2018 07:00:00 2,4 -0,6 0,6 0,4 2,5 7,3 16 9 22 12 SSE 1015,7 13 0 0,0
15.01.2018 06:00:00 2,4 -0,7 0,6 0,4 2,5 7,3 10 5 23 12 SSE 1016,1 14 0 0,0
15.01.2018 05:00:00 2,8 -1,0 1,4 0,4 2,6 7,3 16 9 24 13 SSE 1016,9 16 0 0,0
15.01.2018 04:00:00 2,8 -1,0 2,1 0,4 2,6 7,3 18 10 29 16 SSE 1017,7 16 0 0,0
15.01.2018 03:00:00 2,2 -1,5 1,4 0,4 2,7 7,3 19 10 29 16 SSE 1018,6 16 0 0,0
15.01.2018 02:00:00 1,7 -2,0 -0,1 0,5 2,8 7,4 14 8 29 16 SSE 1019,1 17 0 0,0
15.01.2018 01:00:00 1,8 -2,1 -0,1 0,5 2,9 7,4 14 8 33 18 SE 1019,9 18 0 0,0
15.01.2018 00:00:00 2,0 -2,0 0,3 0,5 3,0 7,4 23 12 39 21 SSE 1020,3 18 0 0,0
14.01.2018 23:00:00 1,6 -2,0 -0,3 0,6 3,2 7,4 18 10 33 18 SE 1020,8 14 0 0,0
14.01.2018 22:00:00 1,5 -1,8 -0,4 0,6 3,3 7,4 19 10 34 19 SE 1021,1 13 0 0,0
14.01.2018 21:00:00 1,9 -1,7 0,0 0,6 3,5 7,4 16 9 31 17 SSE 1021,4 13 0 0,0
14.01.2018 20:00:00 1,8 -1,6 -0,3 0,5 3,7 7,4 18 10 29 16 SSE 1021,3 15 0 0,0
14.01.2018 19:00:00 1,4 -1,7 -0,7 1,0 4,0 7,4 14 8 28 15 SE 1021,3 14 0 0,0
14.01.2018 18:00:00 1,7 -1,6 -0,4 1,6 4,1 7,4 15 8 23 13 SE 1021,4 15 0 0,0
14.01.2018 17:00:00 2,2 -1,4 0,4 2,5 4,2 7,4 15 8 32 18 SE 1021,3 14 0 0,0
14.01.2018 16:00:00 2,9 -1,0 2,0 3,6 4,2 7,4 16 9 31 17 SE 1021,5 17 15 0,0
14.01.2018 15:00:00 3,0 -1,2 2,7 4,0 4,0 7,4 22 12 36 19 SSE 1021,5 16 0 0,0
14.01.2018 14:00:00 3,3 -1,3 3,8 4,2 3,8 7,4 19 10 38 21 SE 1021,6 18 2 0,0
14.01.2018 13:00:00 3,3 -1,3 4,1 3,7 3,7 7,4 19 10 36 20 ESE 1021,8 17 12 0,0
14.01.2018 12:00:00 2,7 -1,7 3,1 2,7 3,7 7,4 23 13 40 22 SE 1022,2 13 4 0,0
14.01.2018 11:00:00 2,4 -1,5 2,5 1,8 3,8 7,4 22 12 36 19 ESE 1022,4 11 10 0,0
14.01.2018 10:00:00 1,7 -1,6 0,7 1,1 4,0 7,4 14 8 25 13 ESE 1022,4 11 31 0,0
14.01.2018 09:00:00 1,2 -1,7 -0,2 1,3 4,1 7,4 16 9 29 16 SE 1021,9 12 0 0,0
14.01.2018 08:00:00 1,6 -1,5 0,3 1,9 4,3 7,4 18 10 33 18 ESE 1021,7 13 0 0,0
14.01.2018 07:00:00 2,6 -0,8 2,1 2,3 4,4 7,4 20 11 32 17 ESE 1021,7 15 0 0,0
14.01.2018 06:00:00 2,5 -0,5 1,7 2,5 4,5 7,4 17 9 32 17 ESE 1021,5 14 0 0,0
14.01.2018 05:00:00 2,9 -0,3 2,5 2,9 4,6 7,4 18 10 29 16 ESE 1021,4 13 0 0,0
14.01.2018 04:00:00 3,2 -0,4 2,9 3,1 4,7 7,4 19 10 31 17 ESE 1021,6 15 0 0,0
14.01.2018 03:00:00 3,4 -0,3 3,1 3,3 4,8 7,4 18 10 33 18 ESE 1021,8 16 0 0,0
14.01.2018 02:00:00 3,7 -0,1 3,3 3,4 4,8 7,4 16 9 33 18 ESE 1021,8 17 0 0,0
14.01.2018 01:00:00 4,0 0,0 3,7 3,5 4,9 7,4 19 10 34 18 ESE 1022,1 16 0 0,0
14.01.2018 00:00:00 4,3 0,2 3,9 3,6 5,0 7,4 20 11 34 19 ESE 1022,5 18 0 0,0
13.01.2018 23:00:00 4,4 0,2 4,0 3,7 5,0 7,4 16 9 31 17 ESE 1022,6 18 0 0,0
13.01.2018 22:00:00 4,5 0,1 4,0 3,8 5,1 7,4 17 9 30 16 ESE 1022,8 17 0 0,0
13.01.2018 21:00:00 4,6 0,1 4,1 3,9 5,2 7,4 15 8 37 20 ESE 1023,1 17 0 0,0
13.01.2018 20:00:00 4,8 0,1 4,3 4,0 5,3 7,4 18 10 34 19 ESE 1023,2 18 0 0,0
13.01.2018 19:00:00 5,0 -0,1 4,4 4,2 5,4 7,4 18 10 45 24 ESE 1023,5 19 0 0,0
13.01.2018 18:00:00 5,1 0,0 4,6 4,4 5,5 7,4 21 12 36 19 ESE 1023,7 18 0 0,0
13.01.2018 17:00:00 5,1 -0,1 4,5 4,8 5,5 7,4 18 10 34 18 ESE 1023,8 21 14 0,0
13.01.2018 16:00:00 5,2 0,2 4,8 5,3 5,5 7,4 17 9 32 18 ESE 1024,1 20 0 0,0
13.01.2018 15:00:00 5,5 0,8 5,5 5,6 5,4 7,4 16 8 30 16 SE 1024,5 19 0 0,0
13.01.2018 14:00:00 5,6 0,8 5,7 5,8 5,3 7,4 22 12 32 17 SE 1025,1 19 2 0,0
13.01.2018 13:00:00 5,5 0,3 5,6 5,4 5,2 7,4 22 12 34 18 SE 1025,8 28 0 0,0
13.01.2018 12:00:00 5,0 1,1 5,2 5,0 5,2 7,4 16 9 26 14 SE 1026,3 24 0 0,0
13.01.2018 11:00:00 4,4 1,3 4,6 4,5 5,2 7,4 14 7 32 17 SE 1026,5 14 0 0,0
13.01.2018 10:00:00 4,1 1,7 3,9 4,4 5,3 7,4 21 11 35 19 ESE 1026,4 9 0 0,0
13.01.2018 09:00:00 4,7 2,2 4,4 4,6 5,3 7,4 19 10 32 17 ESE 1025,8 9 0 0,0
13.01.2018 08:00:00 4,9 3,2 4,7 4,7 5,3 7,4 13 7 21 11 ESE 1025,6 8 0 0,0
13.01.2018 07:00:00 5,0 3,6 4,7 4,7 5,3 7,4 8 4 19 10 E 1025,8 7 0 0,0
13.01.2018 06:00:00 5,1 3,9 4,7 4,7 5,3 7,4 11 6 19 10 ESE 1025,8 6 0 0,0
13.01.2018 05:00:00 5,2 4,2 4,9 4,6 5,4 7,4 10 6 21 12 ESE 1026,0 5 0 0,0
13.01.2018 04:00:00 4,5 4,2 4,0 4,6 5,4 7,4 5 3 8 5 SE 1026,2 3,4 0 0,0
13.01.2018 03:00:00 4,3 4,0 3,9 4,6 5,5 7,4 5 3 9 5 E 1026,7 2,0 0 0,0
13.01.2018 02:00:00 4,4 4,1 3,9 4,7 5,5 7,3 4 2 8 5 E 1026,8 2,1 0 0,0
13.01.2018 01:00:00 4,5 4,1 3,9 4,8 5,6 7,3 5 3 7 4 ENE 1026,9 2,3 0 0,0
13.01.2018 00:00:00 4,2 4,0 3,9 4,8 5,6 7,3 5 3 7 4 E 1027,2 2,0 0 0,0
12.01.2018 23:00:00 4,2 3,9 3,8 4,8 5,7 7,3 4 2 6 3 E 1027,3 1,7 0 0,0
12.01.2018 22:00:00 4,4 4,0 4,1 4,9 5,7 7,3 0 0 5 3 N 1027,4 2,6 0 0,0
12.01.2018 21:00:00 4,2 3,9 3,4 5,0 5,8 7,3 5 3 5 3 E 1027,2 2,0 0 0,0
12.01.2018 20:00:00 4,5 3,9 3,7 5,3 5,8 7,3 3 2 8 4 ESE 1027,0 2,5 0 0,0
12.01.2018 19:00:00 5,0 4,4 4,9 5,5 5,9 7,3 4 2 7 4 SE 1026,9 2,1 0 0,0
12.01.2018 18:00:00 4,9 4,3 4,8 5,7 5,9 7,3 0 0 4 2 N 1026,9 1,9 0 0,0
12.01.2018 17:00:00 5,0 4,4 5,0 5,8 5,8 7,3 0 0 4 2 N 1026,9 1,9 0 0,0
12.01.2018 16:00:00 5,0 4,5 5,2 6,0 5,8 7,3 3 1 7 4 WSW 1026,7 1,8 0 0,0
12.01.2018 15:00:00 4,9 4,6 5,3 6,1 5,7 7,3 3 2 8 4 WNW 1026,3 1,5 0 0,0
12.01.2018 14:00:00 4,7 4,3 5,4 6,0 5,7 7,3 4 2 8 4 N 1026,4 1,5 0 0,0
12.01.2018 13:00:00 4,6 4,3 5,3 5,9 5,6 7,3 6 3 9 5 NW 1026,6 1,2 0 0,0
12.01.2018 12:00:00 4,5 4,5 5,0 5,7 5,6 7,3 4 2 10 5 NNW 1026,8 0,6 0 0,0
12.01.2018 11:00:00 4,5 4,5 4,7 5,4 5,6 7,3 4 2 11 6 NW 1026,8 0,1 0 0,0
12.01.2018 10:00:00 4,6 4,6 4,7 5,2 5,6 7,3 6 3 11 6 WNW 1026,2 0,1 0 0,0
12.01.2018 09:00:00 4,6 4,6 4,6 5,2 5,6 7,3 6 3 13 7 WNW 1025,6 0,2 0 0,0
12.01.2018 08:00:00 4,7 4,7 4,7 5,2 5,6 7,3 6 3 13 7 NW 1025,2 0,3 0 0,0
12.01.2018 07:00:00 5,0 4,8 4,9 5,3 5,6 7,3 7 4 13 7 WNW 1024,6 0,9 0 0,0
12.01.2018 06:00:00 5,3 5,1 5,1 5,3 5,5 7,3 5 3 11 6 NW 1024,6 1,1 0 0,0
12.01.2018 05:00:00 5,6 5,6 5,4 5,2 5,5 7,3 5 3 12 7 NW 1024,4 1,2 0 0,0
12.01.2018 04:00:00 5,6 5,5 5,4 5,2 5,5 7,3 5 3 8 4 WNW 1024,1 1,3 0 0,0
12.01.2018 03:00:00 5,7 5,6 5,5 5,1 5,6 7,3 6 3 9 5 NW 1023,7 1,4 0 0,0
12.01.2018 02:00:00 5,8 5,6 5,5 4,9 5,6 7,3 7 4 10 6 WNW 1023,3 1,8 0 0,0
12.01.2018 01:00:00 5,2 5,2 4,0 4,7 5,7 7,3 4 2 8 5 W 1022,9 2,1 0 0,0
12.01.2018 00:00:00 5,4 5,3 4,0 4,8 5,8 7,3 5 3 9 5 W 1022,8 2,7 0 0,0
11.01.2018 23:00:00 5,2 4,8 3,0 5,0 5,9 7,3 4 2 10 5 WSW 1022,1 4,0 0 0,0
11.01.2018 22:00:00 6,2 5,2 4,9 5,5 5,9 7,3 6 3 9 5 WNW 1021,7 7 0 0,0
11.01.2018 21:00:00 6,2 5,4 5,2 5,6 6,0 7,3 5 3 8 5 WNW 1021,1 6 0 0,0
11.01.2018 20:00:00 6,4 5,6 5,1 5,7 6,0 7,3 4 2 8 5 WNW 1020,6 8 0 0,0
11.01.2018 19:00:00 6,5 5,5 5,1 6,0 6,1 7,3 6 4 8 5 WNW 1020,2 8 0 0,0
11.01.2018 18:00:00 6,8 5,5 5,7 6,2 6,1 7,3 6 3 8 5 WNW 1019,6 11 0 0,0
11.01.2018 17:00:00 7,4 5,6 6,1 6,6 6,0 7,3 5 3 7 4 NW 1018,8 14 0 0,0
11.01.2018 16:00:00 7,9 5,6 7,4 7,0 5,9 7,3 5 3 7 4 NNW 1018,3 15 0 0,0
11.01.2018 15:00:00 7,9 5,7 7,9 7,2 5,7 7,3 3 2 5 3 E 1017,4 11 0 0,0
11.01.2018 14:00:00 7,6 5,4 7,3 7,0 5,5 7,3 3 2 7 4 E 1016,8 10 0 0,0
11.01.2018 13:00:00 7,4 5,8 7,6 6,4 5,4 7,3 4 2 8 4 SE 1016,7 8 0 0,0
11.01.2018 12:00:00 6,7 5,6 6,6 5,8 5,3 7,3 5 3 6 4 E 1016,7 7 0 0,0
11.01.2018 11:00:00 6,3 5,2 6,0 5,4 5,2 7,3 2 1 9 5 ESE 1016,4 6 0 0,0
11.01.2018 10:00:00 5,9 5,2 5,5 4,8 5,2 7,3 5 3 10 5 ENE 1015,7 6 0 0,0
11.01.2018 09:00:00 5,5 4,8 4,8 4,5 5,2 7,3 8 4 10 5 E 1015,0 7 0 0,0
11.01.2018 08:00:00 5,3 4,7 4,6 4,5 5,3 7,3 7 4 11 6 E 1014,2 7 0 0,0
11.01.2018 07:00:00 5,1 4,6 4,5 4,4 5,4 7,3 8 4 11 6 E 1013,6 7 0 0,0
11.01.2018 06:00:00 4,5 4,3 2,8 4,6 5,4 7,3 5 3 7 4 E 1013,1 7 0 0,0
11.01.2018 05:00:00 5,2 4,7 3,4 5,0 5,4 7,3 4 2 8 4 ESE 1012,6 8 0 0,0
11.01.2018 04:00:00 5,7 4,9 4,6 5,1 5,5 7,3 5 3 6 4 E 1012,4 11 0 0,0
11.01.2018 03:00:00 6,1 5,0 5,0 5,2 5,5 7,3 4 2 10 5 SE 1012,1 17 0 0,0
11.01.2018 02:00:00 6,5 5,2 5,6 5,2 5,5 7,3 7 4 10 6 S 1011,6 17 0 0,0
11.01.2018 01:00:00 6,5 5,1 5,5 5,2 5,5 7,3 6 4 11 6 S 1011,7 21 0 0,0
11.01.2018 00:00:00 6,4 5,0 5,4 5,1 5,6 7,3 6 3 11 6 S 1011,5 23 0 0,0
10.01.2018 23:00:00 6,4 5,0 5,2 5,2 5,6 7,3 7 4 14 8 SSE 1011,1 17 0 0,1
10.01.2018 22:00:00 6,6 4,7 5,4 5,2 5,6 7,3 8 4 16 9 SSE 1011,1 23 0 0,0
10.01.2018 21:00:00 6,8 4,4 5,4 5,4 5,7 7,3 11 6 16 9 SSE 1010,7 22 0 0,0
10.01.2018 20:00:00 6,5 3,7 5,9 5,4 5,8 7,3 8 4 12 7 ESE 1010,6 25 0 0,0
10.01.2018 19:00:00 6,7 3,4 5,6 5,4 5,9 7,3 9 5 13 7 ESE 1010,4 34 0 0,0
10.01.2018 18:00:00 6,5 3,3 4,7 5,7 6,0 7,3 11 6 16 9 ESE 1010,1 39 0 0,0
10.01.2018 17:00:00 6,8 3,3 4,4 6,5 5,9 7,3 13 7 21 11 SE 1010,0 41 1 0,0
10.01.2018 16:00:00 8,7 3,6 7,3 7,9 5,7 7,3 13 7 26 14 SSE 1009,5 55 6 0,0
10.01.2018 15:00:00 9,3 3,5 10,0 8,7 5,3 7,3 14 8 27 15 SSE 1009,1 47 60 0,0
10.01.2018 14:00:00 9,2 4,0 10,7 7,1 5,1 7,3 18 10 26 14 SSE 1009,2 51 9 0,1
10.01.2018 13:00:00 7,6 4,6 6,7 6,7 4,9 7,3 16 9 26 14 SE 1009,9 12 9 0,1
10.01.2018 12:00:00 8,4 4,1 9,2 5,8 4,7 7,3 13 7 23 13 SSE 1010,5 45 22 0,0
10.01.2018 11:00:00 7,7 4,1 7,2 4,9 4,6 7,3 16 9 29 15 SSE 1010,7 56 22 0,0
10.01.2018 10:00:00 7,2 4,2 5,9 4,5 4,6 7,4 18 10 28 15 SSE 1010,8 52 2 0,0
10.01.2018 09:00:00 6,7 4,5 5,3 4,5 4,6 7,4 11 6 21 11 SSE 1010,5 68 0 0,0
10.01.2018 08:00:00 6,9 5,1 5,8 4,5 4,5 7,4 11 6 22 12 SSE 1010,4 55 0 0,0

tt = temperature
td = dewpoint
tt 5cm = temperature 5cm
tt -5cm = temperature -5cm
tt -20cm = temperature -20cm
tt -100cm = temperature -100cm
ff = wind speed
fx = gusts
dd = wind direction
ppp = reduced air pressure
vv = visibility
sd = sunshine duration
rr = precipitation

Next stations